Temperature
20 20 20 20 20 20 20 19 19 19 19 19 19 19 19 19 19 19 19 19 19 19 19 19 19 19 19 19 19 19 19 19 19 19 19 19 19 19 19 19 19 19 19
21 20 20 20 20 20 20 19 19 19 19 19 19 19 19 19 19 19 19 19 19 19 19 19 19 19 19 19 19 19 19 19 19 19 19 19 19 19 19 19 19 19 19
21 20 20 20 20 20 20 20 19 19 19 19 19 18 19 19 19 19 19 19 19 19 19 19 19 19 19 19 19 18 19 19 19 19 19 18 18 19 19 19 19 19 19
20 20 20 20 20 20 19 19 19 19 19 19 19 18 19 19 19 19 19 19 19 19 19 18 18 18 19 18 18 18 18 18 18 18 18 18 18 18 18 19 19 19 19
20 20 20 20 20 20 20 19 19 19 19 19 19 18 18 18 19 19 19 18 18 19 18 18 18 18 18 18 18 18 18 18 18 18 18 18 18 18 19 19 19 19 18
20 20 20 19 19 19 19 19 19 18 19 19 19 18 18 18 18 18 18 18 18 18 18 18 18 18 18 18 18 18 18 18 18 18 18 18 18 18 18 19 19 19 18
20 20 19 19 19 19 19 19 19 19 19 19 19 18 18 18 18 18 18 18 18 18 18 18 18 18 18 18 18 18 18 17 18 18 18 18 18 18 18 18 18 18 18
20 20 19 19 19 19 19 19 19 19 19 19 19 18 18 18 18 18 18 18 18 18 18 18 18 18 18 17 18 18 18 18 18 18 18 19 19 19 18 18 18 18 18
20 20 19 19 19 19 19 19 19 18 19 19 18 18 18 18 18 18 18 18 18 18 17 17 17 17 17 17 17 17 18 18 18 18 18 18 18 18 18 19 18 18 18
20 19 19 19 19 19 19 18 18 18 18 18 18 18 18 18 18 18 18 18 18 18 17 17 17 17 17 17 17 17 17 18 18 18 18 18 18 18 18 18 18 18 18
20 19 19 19 19 19 18 18 18 18 18 18 18 18 18 18 18 18 18 18 17 17 17 17 17 17 17 17 17 17 17 17 17 17 18 18 18 18 18 18 18 18 18
20 20 20 20 19 19 18 18 18 18 18 18 18 18 18 18 17 17 18 18 17 17 17 17 17 17 17 17 17 17 17 17 17 17 18 18 18 18 18 18 18 18 19
21 21 21 21 20 19 19 18 18 18 18 18 18 18 18 18 17 18 18 18 18 18 17 17 17 17 17 17 17 17 17 17 17 17 17 18 18 18 18 18 18 18 18
21 21 21 21 21 20 19 19 19 18 18 18 18 18 18 18 18 18 18 18 18 17 17 17 17 17 17 17 17 17 17 17 17 17 17 17 17 18 17 17 18 18 18
21 21 21 21 21 20 20 19 19 19 18 18 18 18 18 18 17 18 18 18 18 17 17 17 17 17 17 17 17 17 16 17 17 17 17 17 17 17 17 17 17 18 18
22 21 21 21 21 20 20 20 19 19 18 18 18 18 18 17 17 18 19 19 18 17 17 17 17 17 16 17 17 17 16 16 16 16 17 17 17 17 17 17 17 17 18
23 23 22 21 21 21 20 20 19 19 18 18 18 18 18 18 17 17 18 18 17 17 17 17 17 17 16 16 16 16 16 16 16 16 16 16 16 17 17 17 17 17 17
23 23 22 21 21 21 20 20 20 19 19 18 18 18 17 17 17 17 17 17 17 17 17 16 16 16 16 16 16 16 16 16 16 16 16 16 16 16 16 17 17 17 17
23 23 23 22 22 21 21 20 19 19 19 18 18 18 17 17 17 17 17 17 17 16 16 16 16 16 16 16 16 16 16 16 16 16 16 16 16 16 16 16 17 17 17
23 23 23 22 22 21 21 20 19 19 19 18 18 18 18 17 17 17 17 17 16 16 16 16 16 16 16 16 16 16 16 16 15 15 16 16 16 16 17 17 17 16 16
23 23 23 23 22 22 21 20 20 19 19 18 18 18 17 17 17 17 17 17 17 17 17 17 16 16 16 15 15 15 15 15 15 15 15 15 16 16 17 17 17 16 16
23 24 23 24 23 22 22 21 20 20 19 19 18 17 17 17 17 17 17 17 16 17 17 16 16 15 15 15 15 15 15 15 15 15 15 15 15 15 16 16 16 16 16
23 23 24 24 23 22 21 21 20 19 19 18 18 17 17 17 17 17 17 17 17 16 16 16 16 15 15 15 15 15 15 15 15 15 15 15 15 15 15 16 16 16 16
22 21 22 22 21 22 21 20 20 20 20 19 18 17 17 17 17 17 17 16 16 16 16 15 15 15 15 15 15 14 15 15 14 15 15 15 15 14 15 15 15 15 15
19 19 20 19 19 20 19 18 19 20 20 18 17 17 17 17 17 17 17 17 16 16 16 15 15 15 15 15 15 15 14 14 13 13 14 15 15 15 15 15 15 15 15
17 17 17 17 18 18 17 17 18 19 19 18 17 17 17 17 17 17 17 16 16 16 15 15 15 15 15 15 15 15 15 14 13 14 14 14 14 15 15 15 15 15 15
Wind_Speed
6 9 15 15 14 15 15 15 14 14 15 15 14 14 14 12 12 11 9 9 9 9 9 8 8 7 7 7 8 9 10 8 7 7 7 6 4 7 8 7 8 7 8
9 10 15 16 14 14 15 15 14 13 14 14 14 14 13 12 11 11 10 10 8 8 8 8 7 8 7 7 7 8 9 8 6 8 7 6 5 7 6 6 8 8 9
12 11 14 15 15 13 13 14 14 14 14 14 14 15 14 12 11 10 11 10 9 8 7 7 6 7 6 6 7 7 7 7 6 7 7 6 5 5 5 7 8 9 9
11 11 12 16 15 14 14 14 13 13 14 14 14 15 14 12 11 10 9 9 9 8 8 7 6 6 6 5 4 4 4 4 5 6 6 5 5 3 2 6 7 8 8
8 9 12 15 14 14 14 14 14 14 14 15 15 14 13 12 11 9 8 8 9 8 8 8 7 7 7 6 4 4 4 3 6 6 4 4 5 2 2 4 7 7 8
7 7 11 13 14 14 14 15 15 15 14 15 14 13 13 12 10 8 7 9 9 9 9 9 9 8 8 7 5 4 4 7 6 4 2 3 4 2 3 4 5 6 7
7 7 10 13 13 13 12 12 13 15 14 14 14 13 12 11 10 7 7 8 9 9 9 9 9 9 8 8 7 5 7 8 5 2 2 3 4 2 3 3 3 5 6
8 8 9 12 13 13 13 13 12 13 13 13 13 12 12 10 9 8 7 7 7 8 7 7 8 8 8 8 7 6 9 8 6 4 4 4 4 3 3 4 4 5 5
5 6 6 9 12 13 13 13 13 12 12 13 12 11 10 10 9 8 6 6 5 4 4 5 6 7 7 7 6 5 7 10 8 5 4 5 4 3 3 4 5 6 5
6 6 4 7 8 9 11 13 13 12 13 12 11 10 9 8 8 7 6 5 5 5 3 2 4 5 6 7 7 5 7 8 7 4 2 3 3 3 3 4 4 5 4
6 6 6 5 5 7 8 10 12 12 13 13 12 10 8 6 6 5 4 4 5 5 3 2 2 3 5 7 8 8 8 6 4 3 2 3 3 2 2 2 2 2 2
10 8 7 7 5 6 6 7 9 11 11 11 11 10 8 6 5 5 4 5 5 3 2 1 1 3 5 6 7 8 7 5 3 3 3 3 2 1 1 1 0 1 1
10 10 10 9 7 6 4 5 6 8 9 10 11 11 9 6 5 4 3 3 2 3 3 3 5 4 2 4 6 6 6 5 4 5 6 4 3 3 3 4 3 3 4
9 11 11 10 8 6 6 5 5 5 7 7 10 12 9 5 3 4 4 4 2 2 3 1 2 1 1 3 5 6 5 5 4 3 5 5 3 4 5 6 6 5 5
9 9 9 9 8 7 5 4 4 4 5 9 11 12 11 5 3 4 4 5 5 4 4 2 2 3 3 5 6 6 5 5 5 5 6 7 6 3 2 4 5 5 7
10 11 10 11 10 8 7 6 5 6 7 10 10 11 12 9 6 4 4 4 5 6 6 4 3 3 4 5 5 6 5 5 5 6 7 8 7 4 2 3 3 2 5
11 10 12 12 10 10 8 7 6 7 8 6 8 12 13 11 9 6 4 4 5 7 6 3 2 3 3 3 3 4 4 3 3 5 7 8 8 8 6 4 5 5 5
9 10 11 12 12 10 9 7 4 6 7 8 10 11 12 12 11 7 4 5 8 8 5 3 2 2 2 3 3 3 3 2 0 2 4 5 6 7 9 8 8 7 7
12 11 12 13 14 13 10 7 5 5 5 7 9 9 12 13 13 9 6 6 7 5 3 3 2 3 3 3 3 2 2 2 1 1 2 3 3 4 6 7 10 10 10
13 12 13 13 12 11 8 6 5 4 4 5 6 8 11 12 13 10 6 6 6 4 4 5 4 3 2 3 2 2 2 1 0 1 1 1 1 2 4 4 6 8 11
15 15 15 14 12 11 7 6 5 5 4 3 4 6 9 11 10 7 4 4 5 6 6 6 3 3 2 3 3 2 2 2 1 2 1 1 1 2 0 2 2 3 6
16 17 16 17 16 14 11 6 4 4 3 3 3 4 7 8 7 5 4 5 6 6 6 6 4 3 2 3 4 3 1 2 2 3 3 2 3 3 3 2 1 2 2
12 15 14 15 14 9 6 7 6 5 4 3 2 3 4 7 8 7 6 4 5 5 5 5 5 5 4 3 2 4 4 4 2 3 3 4 3 3 3 4 3 2 2
5 6 8 9 11 11 7 3 4 5 4 4 4 4 4 6 6 7 6 5 6 6 6 6 7 5 6 5 3 2 4 3 1 1 3 4 4 5 5 4 5 5 4
6 7 7 9 9 10 6 4 3 2 3 2 2 4 4 4 5 7 8 6 6 5 6 7 7 7 6 6 5 4 3 3 2 1 3 3 3 5 5 5 6 7 7
11 12 11 10 17 13 2 4 4 3 4 5 5 5 5 4 4 4 5 4 5 5 5 5 6 6 6 5 5 5 5 5 4 4 4 4 4 4 5 5 5 8 9
Wind_Direction
183 186 156 152 148 147 146 142 138 135 131 126 123 119 117 118 120 116 110 105 96 97 101 106 110 108 108 107 114 123 129 130 133 141 144 124 121 135 123 77 77 86 101
157 178 159 155 152 151 150 150 148 147 139 134 132 127 124 122 117 118 120 121 114 103 106 107 112 108 107 110 122 129 134 134 128 127 132 115 112 117 108 89 81 83 92
152 167 162 158 158 159 154 155 158 154 145 142 138 134 129 126 127 127 125 122 119 111 101 101 105 103 104 109 122 135 144 148 129 97 79 72 80 87 95 88 83 86 88
152 159 162 162 162 161 159 161 161 153 147 143 144 140 137 138 136 133 127 123 119 114 103 95 96 98 94 91 106 125 142 147 132 94 67 36 22 43 77 96 99 98 96
149 153 162 165 163 161 161 165 163 156 151 148 146 145 143 143 141 138 138 133 123 116 106 98 92 90 90 79 81 127 160 147 125 113 68 15 353 23 71 107 114 112 108
143 146 163 165 166 167 169 169 166 155 153 152 150 147 144 141 137 136 146 144 136 128 115 102 92 81 76 72 77 107 135 131 120 124 103 12 335 36 76 74 109 123 121
135 140 162 169 170 171 171 169 166 152 155 154 152 150 147 143 138 134 134 138 140 134 121 105 94 86 73 68 66 86 107 122 127 93 33 26 346 21 101 94 114 127 128
143 144 164 172 172 176 171 170 170 160 159 158 159 156 150 143 138 135 135 140 140 136 126 111 97 88 78 64 60 90 116 115 107 71 28 15 20 46 86 89 95 118 131
138 148 164 166 177 181 176 173 175 169 167 166 161 159 156 153 146 145 146 145 150 152 141 115 98 85 71 53 50 79 116 107 96 70 32 10 27 59 70 92 88 97 112
148 155 145 160 177 179 179 182 182 174 172 169 164 163 164 162 156 149 153 164 178 175 160 109 83 69 59 52 45 63 99 98 84 81 46 17 31 62 69 80 81 88 97
158 159 154 156 168 173 177 186 183 177 176 170 160 160 163 160 146 141 152 170 174 167 152 98 65 79 85 74 77 83 83 75 58 53 18 6 6 35 57 63 61 66 95
184 182 174 172 170 169 175 180 179 174 168 162 157 154 149 151 142 143 173 174 179 170 124 50 27 44 65 68 78 91 95 81 41 4 351 342 313 266 221 242 255 250 228
186 188 187 182 174 168 167 177 176 161 155 156 158 154 155 155 154 156 180 181 178 138 84 34 8 7 43 98 102 103 100 82 45 1 336 327 288 244 230 222 221 237 237
182 193 186 184 177 171 168 183 166 155 155 146 158 163 163 161 170 182 180 182 165 133 117 86 349 315 171 123 110 104 98 95 83 43 348 337 316 253 229 204 195 221 238
191 193 183 175 179 173 168 167 160 152 153 152 163 177 176 168 172 190 199 194 182 175 172 189 149 144 141 131 127 116 97 85 77 63 31 12 354 325 212 204 196 221 229
196 193 181 179 177 171 177 177 173 156 156 155 171 187 187 188 186 191 203 204 191 192 189 184 167 157 151 150 140 131 116 86 60 51 48 31 15 11 79 141 166 178 177
199 192 186 182 174 177 181 181 176 169 162 163 183 195 200 201 195 196 199 209 195 199 197 182 161 144 141 142 139 142 132 113 84 54 44 47 40 32 43 101 118 120 131
199 189 189 188 178 181 181 179 176 170 167 174 187 197 205 209 204 193 200 218 203 193 188 178 170 159 176 180 175 185 163 148 333 38 55 50 50 45 35 59 88 97 108
206 188 184 190 182 181 178 169 162 169 170 182 188 190 201 212 211 201 208 222 203 189 193 192 182 171 185 196 193 181 180 182 258 355 40 64 34 37 41 39 63 72 81
209 192 183 189 183 173 161 147 142 166 178 181 189 194 200 209 208 204 221 214 200 202 204 199 179 161 168 166 138 74 7 317 290 346 322 356 27 25 56 46 55 62 72
204 196 183 180 179 168 166 164 163 182 175 181 193 195 200 211 207 196 221 211 196 205 200 188 160 138 130 129 105 62 4 1 312 286 279 254 241 251 92 67 56 50 66
211 199 187 182 180 182 184 165 139 135 142 145 163 182 198 204 209 198 223 218 190 183 174 160 144 109 96 142 132 125 72 319 278 253 268 250 234 242 244 219 148 93 95
215 206 193 183 170 168 146 116 87 80 74 99 149 192 194 195 188 180 203 219 189 179 171 165 161 162 150 151 145 140 147 209 253 261 250 247 235 235 243 231 210 170 143
206 165 156 159 143 121 103 128 159 153 163 171 174 189 181 183 187 184 179 195 187 182 175 172 173 162 151 152 148 144 121 142 180 298 273 253 235 232 232 228 219 206 193
66 79 98 109 90 92 114 167 227 128 131 149 156 175 186 192 197 195 185 185 188 190 186 176 167 165 170 169 168 156 146 130 157 189 276 287 267 238 225 219 216 215 213
45 49 52 73 84 65 332 214 181 152 175 184 190 199 196 207 211 192 183 183 198 197 193 191 176 181 192 196 192 181 165 155 176 176 219 248 261 255 231 218 214 214 214
Height
1514 1516 1519 1521 1523 1524 1526 1527 1529 1530 1531 1532 1533 1534 1536 1537 1537 1537 1539 1539 1540 1541 1541 1541 1542 1542 1543 1543 1544 1546 1547 1548 1548 1549 1549 1550 1552 1552 1552 1551 1550 1550 1550
1514 1516 1519 1521 1523 1525 1527 1528 1530 1532 1533 1533 1534 1535 1537 1538 1538 1539 1539 1540 1541 1542 1542 1542 1542 1543 1544 1545 1546 1546 1548 1549 1549 1551 1551 1552 1553 1553 1553 1552 1552 1552 1552
1514 1516 1519 1521 1523 1526 1527 1529 1531 1532 1533 1534 1535 1536 1537 1538 1539 1540 1540 1541 1542 1543 1543 1543 1543 1544 1545 1546 1547 1548 1549 1551 1551 1552 1552 1553 1555 1554 1554 1553 1553 1553 1553
1515 1517 1519 1521 1524 1526 1527 1529 1530 1532 1534 1535 1536 1537 1539 1540 1540 1541 1542 1542 1543 1543 1544 1544 1545 1545 1546 1547 1547 1549 1550 1552 1553 1553 1554 1554 1555 1555 1555 1554 1554 1554 1554
1516 1518 1520 1522 1524 1526 1528 1529 1531 1533 1534 1535 1536 1538 1540 1541 1542 1542 1543 1543 1544 1544 1545 1545 1546 1547 1547 1548 1548 1549 1551 1552 1553 1554 1555 1555 1556 1557 1556 1556 1556 1555 1555
1516 1519 1521 1523 1524 1526 1528 1530 1531 1532 1534 1536 1537 1539 1540 1542 1543 1544 1544 1545 1545 1545 1546 1547 1547 1548 1549 1549 1550 1550 1551 1553 1554 1555 1556 1556 1557 1557 1556 1556 1556 1556 1556
1517 1520 1522 1523 1525 1526 1528 1530 1531 1533 1534 1536 1538 1540 1541 1542 1543 1545 1545 1546 1546 1547 1547 1548 1548 1549 1550 1551 1552 1552 1552 1553 1555 1555 1556 1557 1557 1557 1557 1557 1556 1556 1557
1517 1519 1521 1523 1525 1527 1528 1530 1532 1534 1535 1537 1539 1541 1542 1543 1544 1545 1546 1547 1548 1548 1548 1548 1549 1549 1550 1552 1552 1553 1554 1554 1556 1556 1557 1558 1557 1557 1557 1557 1556 1556 1556
1518 1520 1522 1523 1525 1527 1529 1530 1532 1534 1536 1537 1539 1541 1543 1544 1544 1545 1546 1547 1548 1549 1550 1550 1550 1551 1552 1553 1554 1554 1555 1555 1556 1557 1558 1558 1557 1557 1557 1556 1556 1556 1556
1519 1521 1522 1524 1525 1527 1528 1530 1532 1535 1536 1538 1539 1542 1543 1544 1545 1546 1547 1548 1549 1550 1551 1552 1551 1552 1554 1554 1555 1557 1557 1557 1558 1558 1558 1558 1557 1557 1557 1557 1556 1557 1557
1518 1520 1521 1523 1524 1526 1528 1530 1532 1534 1536 1537 1540 1542 1544 1545 1546 1547 1547 1548 1550 1551 1552 1552 1552 1553 1553 1554 1556 1557 1558 1558 1559 1559 1558 1558 1557 1557 1557 1556 1556 1557 1557
1516 1518 1519 1521 1523 1525 1528 1529 1530 1533 1534 1536 1539 1541 1544 1546 1546 1546 1547 1548 1550 1551 1552 1553 1553 1553 1555 1555 1556 1556 1557 1558 1558 1558 1557 1557 1557 1556 1556 1556 1556 1557 1557
1516 1517 1518 1520 1522 1524 1526 1528 1529 1531 1533 1536 1538 1540 1543 1545 1546 1546 1547 1548 1548 1549 1551 1553 1555 1556 1556 1556 1557 1557 1557 1557 1558 1557 1556 1556 1555 1555 1555 1555 1555 1556 1557
1514 1516 1517 1519 1521 1523 1525 1527 1530 1532 1534 1536 1538 1540 1542 1544 1546 1546 1546 1547 1548 1549 1551 1553 1554 1556 1557 1557 1556 1557 1556 1555 1556 1556 1555 1555 1554 1553 1553 1554 1554 1555 1556
1513 1515 1517 1519 1521 1522 1524 1526 1529 1531 1533 1536 1537 1540 1541 1544 1545 1546 1547 1547 1548 1549 1550 1552 1553 1555 1556 1557 1557 1557 1556 1555 1554 1554 1554 1554 1554 1553 1553 1553 1553 1554 1555
1512 1514 1516 1518 1520 1522 1523 1524 1528 1529 1532 1534 1536 1539 1541 1543 1544 1545 1545 1546 1547 1549 1550 1552 1552 1553 1555 1556 1557 1556 1555 1555 1555 1554 1553 1553 1553 1553 1552 1552 1552 1553 1555
1509 1512 1514 1516 1518 1520 1522 1524 1526 1529 1531 1533 1535 1537 1539 1540 1543 1545 1545 1545 1546 1547 1549 1550 1551 1553 1554 1555 1556 1556 1556 1556 1555 1555 1554 1554 1553 1553 1553 1552 1552 1552 1554
1507 1509 1512 1515 1516 1519 1521 1523 1525 1527 1529 1531 1533 1535 1537 1539 1541 1543 1544 1546 1547 1547 1548 1550 1551 1552 1553 1554 1555 1555 1555 1556 1555 1554 1554 1555 1555 1554 1554 1554 1553 1553 1553
1504 1506 1508 1511 1513 1516 1518 1521 1523 1526 1528 1530 1531 1532 1535 1538 1540 1541 1543 1545 1546 1547 1547 1548 1550 1551 1552 1553 1553 1554 1554 1554 1555 1555 1555 1555 1556 1556 1555 1555 1554 1554 1554
1500 1502 1504 1507 1510 1512 1515 1517 1520 1523 1525 1527 1529 1530 1533 1535 1537 1539 1541 1543 1544 1545 1545 1546 1547 1548 1550 1551 1552 1553 1554 1554 1554 1554 1555 1555 1556 1556 1555 1556 1555 1555 1555
1494 1496 1497 1501 1505 1507 1509 1512 1515 1518 1521 1524 1527 1529 1531 1534 1536 1538 1539 1541 1542 1543 1545 1546 1545 1546 1547 1549 1550 1551 1552 1553 1553 1554 1554 1554 1555 1556 1556 1556 1556 1556 1556
1486 1489 1491 1494 1498 1501 1504 1507 1510 1514 1518 1522 1524 1527 1528 1531 1534 1536 1538 1537 1539 1541 1542 1544 1544 1546 1548 1548 1549 1549 1551 1554 1553 1553 1553 1552 1553 1555 1555 1555 1555 1556 1556
1481 1482 1483 1485 1489 1496 1500 1505 1508 1512 1515 1519 1522 1525 1527 1529 1531 1532 1535 1536 1537 1539 1541 1542 1543 1543 1545 1546 1546 1548 1548 1550 1551 1550 1551 1551 1551 1552 1553 1554 1554 1555 1556
1477 1477 1478 1480 1482 1490 1500 1508 1512 1513 1514 1516 1519 1521 1524 1527 1530 1530 1531 1532 1533 1535 1536 1537 1538 1539 1541 1542 1543 1544 1545 1546 1549 1548 1550 1550 1549 1550 1551 1552 1553 1554 1555
1475 1474 1473 1476 1481 1490 1502 1509 1513 1512 1513 1517 1518 1518 1520 1522 1525 1526 1527 1527 1530 1532 1533 1533 1533 1533 1535 1537 1538 1539 1540 1542 1547 1548 1549 1549 1548 1548 1548 1550 1552 1552 1553
1473 1474 1473 1475 1474 1493 1505 1509 1510 1512 1514 1516 1516 1516 1517 1518 1521 1523 1525 1526 1527 1529 1529 1530 1530 1530 1530 1532 1533 1534 1536 1537 1540 1543 1546 1546 1546 1546 1546 1548 1549 1550 1551